Location: Newark
(46.2167°N, 5.8664°E)
Time: 01:14:14
(UTC+00:00)

N. Korean satellite - Pass Details

Date: 19 October 2019
Orbit: 456 x 506 km, 97.2° (Epoch: 20 November)

Event Time Altitude Azimuth Distance (km) Brightness Sun altitude
Rises 05:12:08 0° 18° (NNE) 2,552 10.4 -8.7°
Reaches altitude 10° 05:14:16 10° 26° (NNE) 1,676 9.6 -8.4°
Maximum altitude 05:17:43 43° 98° (E) 704 8.1 -7.8°
Drops below altitude 10° 05:21:12 10° 171° (S) 1,688 9.5 -7.2°
Sets 05:23:21 0° 179° (S) 2,572 10.4 -6.8°
